GW4081 Weather Reports


Display with metric or nautical units.
time (UTC)temp
F
wind
direction
speed
MPH
gust
MPH
rain 1hr
in
rain 24hr
in
rain mn
in
humidity
%
barometer
mb
20260504130604 66 174 17.0 26.0 0.00 0.00 0.00 62 1006.3
20260504120104 63 187 16.0 23.0 0.00 0.00 0.00 64 1006.4
20260504110604 63 195 16.0 23.0 0.00 0.00 0.00 61 1006.8
20260504110104 64 197 16.0 23.0 0.00 0.00 0.00 61 1007.0
20260504100604 64 191 17.0 24.0 0.00 0.00 0.00 58 1007.2
20260504100104 65 191 14.0 24.0 0.00 0.00 0.00 57 1007.2
20260504090104 66 196 16.0 23.0 0.00 0.00 0.00 55 1007.6
20260504081604 66 194 13.0 21.0 0.00 0.00 0.00 54 1008.0
20260504081103 66 188 12.0 20.0 0.00 0.00 0.00 54 1008.1
20260504080603 66 194 12.0 20.0 0.00 0.00 0.00 53 1008.1
20260504070104 67 183 12.0 18.0 0.00 0.00 0.00 51 1008.9
20260504060104 68 188 13.0 21.0 0.00 0.00 0.00 49 1009.6
20260504050604 69 190 13.0 23.0 0.00 0.00 0.00 47 1010.1
20260504045604 69 190 13.0 23.0 0.00 0.00 0.00 47 1010.1
20260504045103 69 184 14.0 24.0 0.00 0.00 0.00 47 1010.1
20260504044604 70 186 13.0 24.0 0.00 0.00 0.00 47 1010.3
20260504044104 70 188 14.0 21.0 0.00 0.00 0.00 47 1010.3
20260504043103 70 180 14.0 24.0 0.00 0.00 0.00 47 1010.3
20260504042604 70 178 12.0 18.0 0.00 0.00 0.00 47 1010.3
20260504042104 70 181 12.0 18.0 0.00 0.00 0.00 46 1010.3
20260504041104 70 178 13.0 21.0 0.00 0.00 0.00 46 1010.5
20260504040604 70 175 13.0 21.0 0.00 0.00 0.00 46 1010.5
20260504040105 70 188 12.0 20.0 0.00 0.00 0.00 46 1010.5
20260504035604 71 180 12.0 21.0 0.00 0.00 0.00 45 1010.7
20260504035104 71 188 13.0 21.0 0.00 0.00 0.00 45 1010.7
20260504034604 71 176 13.0 20.0 0.00 0.00 0.00 45 1010.7
20260504034104 71 180 12.0 18.0 0.00 0.00 0.00 45 1010.6
20260504033603 71 177 12.0 21.0 0.00 0.00 0.00 45 1010.7
20260504032603 71 175 12.0 21.0 0.00 0.00 0.00 45 1010.7
20260504032103 72 181 13.0 21.0 0.00 0.00 0.00 44 1010.6
20260504031603 72 182 11.0 20.0 0.00 0.00 0.00 44 1010.6
20260504031104 72 186 12.0 20.0 0.00 0.00 0.00 44 1010.6
20260504030604 72 172 12.0 18.0 0.00 0.00 0.00 44 1010.6
20260504025604 72 185 10.0 18.0 0.00 0.00 0.00 44 1010.6
20260504025104 72 190 11.0 18.0 0.00 0.00 0.00 44 1010.5
20260504024604 72 181 13.0 20.0 0.00 0.00 0.00 44 1010.5
20260504024104 73 186 13.0 20.0 0.00 0.00 0.00 44 1010.6
20260504023604 73 175 10.0 20.0 0.00 0.00 0.00 44 1010.5
20260504023104 73 174 11.0 20.0 0.00 0.00 0.00 43 1010.5
20260504022604 73 167 11.0 18.0 0.00 0.00 0.00 43 1010.5
20260504022104 73 179 11.0 18.0 0.00 0.00 0.00 43 1010.4
20260504021604 73 186 12.0 21.0 0.00 0.00 0.00 42 1010.4
20260504021103 74 180 12.0 21.0 0.00 0.00 0.00 42 1010.3
20260504020604 74 187 14.0 20.0 0.00 0.00 0.00 42 1010.3
20260504020104 74 170 10.0 22.0 0.00 0.00 0.00 42 1010.3
20260504015604 74 180 12.0 22.0 0.00 0.00 0.00 42 1010.3
20260504015103 74 172 11.0 18.0 0.00 0.00 0.00 41 1010.2
20260504014604 74 169 11.0 18.0 0.00 0.00 0.00 41 1010.1
20260504014103 75 172 10.0 17.0 0.00 0.00 0.00 40 1010.1
20260504013103 75 178 12.0 21.0 0.00 0.00 0.00 39 1010.1
20260504012603 76 177 12.0 21.0 0.00 0.00 0.00 39 1010.0
20260504012104 76 186 11.0 21.0 0.00 0.00 0.00 38 1010.1
20260504011603 76 186 13.0 18.0 0.00 0.00 0.00 37 1010.1
20260504011104 77 170 10.0 18.0 0.00 0.00 0.00 36 1010.0
20260504010603 77 179 13.0 20.0 0.00 0.00 0.00 35 1010.1
20260504005603 78 185 12.0 20.0 0.00 0.00 0.00 34 1010.2
20260504005103 78 181 13.0 20.0 0.00 0.00 0.00 33 1010.3
20260504004104 78 193 12.0 21.0 0.00 0.00 0.00 33 1010.2
20260504003604 78 179 10.0 23.0 0.00 0.00 0.00 33 1010.2
20260504002604 79 190 10.0 22.0 0.00 0.00 0.00 32 1010.4
20260504002104 80 187 13.0 22.0 0.00 0.00 0.00 31 1010.3
20260504001604 81 202 13.0 22.0 0.00 0.00 0.00 30 1010.4
20260504000604 81 192 15.0 22.0 0.00 0.00 0.00 29 1010.5
20260504000104 81 207 16.0 21.0 0.00 0.00 0.00 29 1010.5
20260503235604 82 191 17.0 21.0 0.00 0.00 0.00 29 1010.5
20260503235104 82 200 12.0 21.0 0.00 0.00 0.00 29 1010.6
20260503234103 82 206 14.0 26.0 0.00 0.00 0.00 28 1010.7
20260503233103 82 205 16.0 24.0 0.00 0.00 0.00 27 1010.8
20260503232604 82 207 15.0 24.0 0.00 0.00 0.00 28 1010.9
20260503231604 83 202 15.0 23.0 0.00 0.00 0.00 28 1010.9
20260503230603 83 209 16.0 28.0 0.00 0.00 0.00 27 1011.0
20260503230104 83 201 18.0 28.0 0.00 0.00 0.00 28 1010.9
20260503225604 83 196 18.0 28.0 0.00 0.00 0.00 28 1011.0
20260503225103 83 206 20.0 28.0 0.00 0.00 0.00 28 1010.9
20260503224603 83 230 15.0 23.0 0.00 0.00 0.00 28 1011.0
20260503223603 83 222 19.0 28.0 0.00 0.00 0.00 28 1011.0
20260503222603 84 204 16.0 24.0 0.00 0.00 0.00 27 1011.1
20260503221104 84 206 17.0 26.0 0.00 0.00 0.00 27 1011.4
20260503220604 84 207 20.0 26.0 0.00 0.00 0.00 27 1011.4
20260503220103 85 192 18.0 26.0 0.00 0.00 0.00 27 1011.4
20260503215603 85 211 16.0 26.0 0.00 0.00 0.00 27 1011.5
20260503215103 84 196 13.0 25.0 0.00 0.00 0.00 28 1011.5
20260503214604 85 201 16.0 25.0 0.00 0.00 0.00 28 1011.6
20260503214104 85 227 16.0 24.0 0.00 0.00 0.00 28 1011.5
20260503213603 85 227 17.0 23.0 0.00 0.00 0.00 28 1011.7
20260503212603 85 193 15.0 23.0 0.00 0.00 0.00 29 1011.7
20260503212103 85 203 18.0 23.0 0.00 0.00 0.00 28 1011.9
20260503211604 85 199 16.0 23.0 0.00 0.00 0.00 28 1012.0
20260503205604 84 240 16.0 26.0 0.00 0.00 0.00 28 1012.3
20260503205104 84 216 16.0 26.0 0.00 0.00 0.00 25 1012.5
20260503204604 85 226 17.0 26.0 0.00 0.00 0.00 25 1012.7
20260503204104 84 217 15.0 24.0 0.00 0.00 0.00 26 1012.7
20260503203604 85 200 17.0 28.0 0.00 0.00 0.00 26 1012.8
20260503203103 85 198 17.0 28.0 0.00 0.00 0.00 26 1012.8
20260503202104 84 215 15.0 24.0 0.00 0.00 0.00 27 1013.1
20260503201603 85 221 16.0 24.0 0.00 0.00 0.00 26 1013.2
20260503201103 84 227 13.0 25.0 0.00 0.00 0.00 27 1013.3
20260503195603 84 206 16.0 30.0 0.00 0.00 0.00 26 1013.5
20260503194603 84 252 14.0 25.0 0.00 0.00 0.00 26 1013.8
20260503194104 85 201 14.0 25.0 0.00 0.00 0.00 27 1013.7
20260503193605 85 198 13.0 23.0 0.00 0.00 0.00 27 1013.8
20260503190605 84 234 14.0 23.0 0.00 0.00 0.00 27 1014.5
20260503190106 84 221 14.0 26.0 0.00 0.00 0.00 25 1014.6
20260503185605 85 250 13.0 26.0 0.00 0.00 0.00 23 1014.6
20260503185105 84 209 13.0 22.0 0.00 0.00 0.00 23 1014.6
20260503184605 83 218 15.0 22.0 0.00 0.00 0.00 25 1014.7
20260503184105 83 217 13.0 22.0 0.00 0.00 0.00 26 1014.8
20260503182605 84 222 12.0 21.0 0.00 0.00 0.00 30 1014.9
20260503182105 83 213 12.0 22.0 0.00 0.00 0.00 30 1014.9
20260503181605 83 225 15.0 22.0 0.00 0.00 0.00 30 1015.1
20260503181106 83 205 12.0 21.0 0.00 0.00 0.00 33 1015.2
20260503180605 82 216 13.0 21.0 0.00 0.00 0.00 33 1015.2
20260503180106 83 230 17.0 21.0 0.00 0.00 0.00 30 1015.4
20260503174606 83 205 16.0 20.0 0.00 0.00 0.00 32 1015.6
20260503174106 83 229 12.0 20.0 0.00 0.00 0.00 34 1015.6
20260503173605 83 201 12.0 20.0 0.00 0.00 0.00 34 1015.7
20260503173106 82 243 11.0 18.0 0.00 0.00 0.00 32 1015.8
20260503172605 82 234 12.0 17.0 0.00 0.00 0.00 32 1015.9
20260503172105 82 235 12.0 17.0 0.00 0.00 0.00 33 1016.0
20260503171606 81 249 12.0 20.0 0.00 0.00 0.00 35 1016.0
20260503171105 81 211 14.0 20.0 0.00 0.00 0.00 34 1016.1
20260503170606 81 213 15.0 22.0 0.00 0.00 0.00 35 1016.1
20260503170105 80 236 13.0 22.0 0.00 0.00 0.00 36 1016.2
20260503160106 76 198 10.0 16.0 0.00 0.00 0.00 43 1016.4
20260503150605 70 237 12.0 16.0 0.00 0.00 0.00 51 1016.6
20260503140105 64 213 12.0 16.0 0.00 0.00 0.00 59 1016.7